| time (UTC) | temp C | wind direction | speed KPH | gust KPH | rain 1hr cm | rain 24hr cm | rain mn cm | humidity % | barometer mb |
| 20260505130142 | 20 | 146 | 6.4 | 12.9 | 0.00 | 0.05 | 0.05 | 62 | 1011.4 |
| 20260505124630 | 19 | 103 | 4.8 | 11.3 | 0.00 | 0.05 | 0.05 | 63 | 1011.6 |
| 20260505124127 | 19 | 92 | 6.4 | 12.9 | 0.00 | 0.05 | 0.05 | 63 | 1011.4 |
| 20260505123623 | 19 | 135 | 4.8 | 11.3 | 0.00 | 0.05 | 0.05 | 63 | 1011.5 |
| 20260505123120 | 19 | 235 | 4.8 | 9.7 | 0.00 | 0.05 | 0.05 | 63 | 1011.2 |
| 20260505122616 | 19 | 130 | 4.8 | 12.9 | 0.00 | 0.05 | 0.05 | 63 | 1011.2 |
| 20260505122114 | 19 | 189 | 6.4 | 11.3 | 0.00 | 0.05 | 0.05 | 64 | 1011.2 |
| 20260505121605 | 18 | 87 | 6.4 | 9.7 | 0.00 | 0.05 | 0.05 | 65 | 1011.4 |
| 20260505121102 | 18 | 156 | 6.4 | 12.9 | 0.00 | 0.05 | 0.05 | 65 | 1011.2 |
| 20260505120558 | 18 | 111 | 6.4 | 9.7 | 0.00 | 0.05 | 0.05 | 65 | 1011.4 |
| 20260505120054 | 18 | 166 | 3.2 | 12.9 | 0.00 | 0.05 | 0.05 | 66 | 1011.2 |
| 20260505115553 | 18 | 164 | 3.2 | 9.7 | 0.00 | 0.05 | 0.05 | 67 | 1011.3 |
| 20260505115051 | 18 | 103 | 3.2 | 9.7 | 0.00 | 0.05 | 0.05 | 67 | 1011.2 |
| 20260505114543 | 18 | 96 | 3.2 | 3.2 | 0.00 | 0.05 | 0.05 | 68 | 1011.1 |
| 20260505114039 | 18 | 170 | 0.0 | 6.4 | 0.00 | 0.05 | 0.05 | 68 | 1011.1 |
| 20260505113536 | 17 | 116 | 3.2 | 9.7 | 0.00 | 0.05 | 0.05 | 69 | 1011.2 |
| 20260505113032 | 17 | 246 | 0.0 | 4.8 | 0.00 | 0.05 | 0.05 | 69 | 1011.3 |
| 20260505112528 | 17 | 115 | 3.2 | 3.2 | 0.00 | 0.05 | 0.05 | 69 | 1011.1 |
| 20260505112027 | 17 | 122 | 1.6 | 6.4 | 0.00 | 0.05 | 0.05 | 69 | 1011.2 |
| 20260505111525 | 17 | 106 | 1.6 | 1.6 | 0.00 | 0.05 | 0.05 | 69 | 1011.2 |
| 20260505111022 | 17 | 126 | 0.0 | 4.8 | 0.00 | 0.05 | 0.05 | 68 | 1011.2 |
| 20260505110519 | 17 | 115 | 1.6 | 6.4 | 0.00 | 0.05 | 0.05 | 69 | 1011.1 |
| 20260505101951 | 17 | 107 | 1.6 | 4.8 | 0.00 | 0.05 | 0.05 | 70 | 1010.7 |
| 20260505101444 | 17 | 122 | 3.2 | 6.4 | 0.00 | 0.05 | 0.05 | 70 | 1010.6 |
| 20260505100940 | 17 | 121 | 1.6 | 1.6 | 0.00 | 0.05 | 0.05 | 71 | 1010.4 |
| 20260505100438 | 17 | 134 | 4.8 | 9.7 | 0.00 | 0.05 | 0.05 | 72 | 1010.3 |
| 20260505095933 | 17 | 123 | 1.6 | 3.2 | 0.00 | 0.05 | 0.05 | 72 | 1010.4 |
| 20260505095430 | 17 | 120 | 1.6 | 3.2 | 0.00 | 0.05 | 0.05 | 73 | 1010.4 |
| 20260505094926 | 17 | 148 | 3.2 | 6.4 | 0.00 | 0.05 | 0.05 | 74 | 1010.2 |
| 20260505094423 | 17 | 155 | 1.6 | 3.2 | 0.00 | 0.05 | 0.05 | 75 | 1010.3 |
| 20260505093920 | 17 | 108 | 1.6 | 3.2 | 0.00 | 0.05 | 0.05 | 75 | 1010.2 |
| 20260505093416 | 16 | 134 | 0.0 | 3.2 | 0.00 | 0.05 | 0.05 | 76 | 1010.2 |
| 20260505092913 | 16 | 126 | 1.6 | 4.8 | 0.00 | 0.05 | 0.05 | 78 | 1010.1 |
| 20260505092412 | 16 | 118 | 0.0 | 4.8 | 0.00 | 0.05 | 0.05 | 80 | 1010.1 |
| 20260505091909 | 16 | 107 | 0.0 | 3.2 | 0.00 | 0.05 | 0.05 | 81 | 1009.9 |
| 20260505091406 | 16 | 198 | 1.6 | 4.8 | 0.00 | 0.05 | 0.05 | 83 | 1010.0 |
| 20260505090904 | 15 | 89 | 3.2 | 4.8 | 0.00 | 0.05 | 0.05 | 86 | 1010.0 |
| 20260505090402 | 15 | 125 | 0.0 | 0.0 | 0.00 | 0.05 | 0.05 | 87 | 1010.1 |
| 20260505085859 | 15 | 72 | 0.0 | 1.6 | 0.00 | 0.05 | 0.05 | 88 | 1009.9 |
| 20260505085357 | 15 | 102 | 1.6 | 3.2 | 0.00 | 0.05 | 0.05 | 89 | 1009.8 |
| 20260505084855 | 15 | 143 | 1.6 | 3.2 | 0.00 | 0.05 | 0.05 | 90 | 1009.7 |
| 20260505084353 | 14 | 97 | 4.8 | 6.4 | 0.00 | 0.05 | 0.05 | 91 | 1010.0 |
| 20260505083850 | 13 | 88 | 3.2 | 4.8 | 0.00 | 0.05 | 0.05 | 92 | 1009.8 |
| 20260505083348 | 13 | 99 | 1.6 | 3.2 | 0.00 | 0.05 | 0.05 | 92 | 1009.8 |
| 20260505082844 | 13 | 89 | 0.0 | 1.6 | 0.00 | 0.05 | 0.05 | 93 | 1009.9 |
| 20260505082340 | 13 | 108 | 0.0 | 1.6 | 0.00 | 0.05 | 0.05 | 93 | 1009.9 |
| 20260505081837 | 13 | 80 | 0.0 | 0.0 | 0.00 | 0.05 | 0.05 | 92 | 1009.8 |
| 20260505081333 | 13 | 88 | 0.0 | 0.0 | 0.00 | 0.05 | 0.05 | 92 | 1009.8 |
| 20260505080830 | 13 | 98 | 0.0 | 0.0 | 0.00 | 0.05 | 0.05 | 92 | 1009.8 |
| 20260505080326 | 13 | 98 | 0.0 | 0.0 | 0.00 | 0.05 | 0.05 | 91 | 1009.6 |
| 20260505075822 | 13 | 101 | 0.0 | 0.0 | 0.00 | 0.05 | 0.05 | 91 | 1009.8 |
| 20260505075319 | 13 | 101 | 0.0 | 0.0 | 0.00 | 0.05 | 0.05 | 91 | 1009.6 |
| 20260505074816 | 13 | 101 | 0.0 | 0.0 | 0.00 | 0.05 | 0.05 | 90 | 1009.7 |
| 20260505074313 | 13 | 101 | 0.0 | 0.0 | 0.00 | 0.05 | 0.05 | 89 | 1009.6 |
| 20260505073811 | 13 | 101 | 0.0 | 0.0 | 0.00 | 0.05 | 0.05 | 89 | 1009.6 |
| 20260505073309 | 13 | 72 | 3.2 | 3.2 | 0.00 | 0.05 | 0.05 | 88 | 1009.4 |
| 20260505072805 | 13 | 24 | 0.0 | 1.6 | 0.00 | 0.05 | 0.05 | 87 | 1009.6 |
| 20260505072301 | 14 | 19 | 1.6 | 1.6 | 0.00 | 0.05 | 0.05 | 86 | 1009.4 |
| 20260505071756 | 15 | 21 | 1.6 | 3.2 | 0.00 | 0.05 | 0.05 | 85 | 1009.5 |
| 20260505071253 | 15 | 25 | 0.0 | 4.8 | 0.00 | 0.05 | 0.05 | 83 | 1009.5 |
| 20260505070751 | 15 | 344 | 1.6 | 4.8 | 0.00 | 0.05 | 0.05 | 82 | 1009.4 |
| 20260505070248 | 16 | 354 | 0.0 | 1.6 | 0.00 | 0.05 | 0.05 | 80 | 1009.5 |
| 20260505065743 | 16 | 93 | 0.0 | 3.2 | 0.30 | 0.05 | 0.05 | 78 | 1009.6 |
| 20260505065241 | 16 | 104 | 3.2 | 11.3 | 0.30 | 0.05 | 0.05 | 77 | 1009.6 |
| 20260505064737 | 17 | 73 | 0.0 | 3.2 | 0.00 | 0.00 | 0.00 | 71 | 1009.9 |
| 20260505064235 | 17 | 106 | 3.2 | 3.2 | 0.00 | 0.00 | 0.00 | 70 | 1010.2 |
| 20260505063732 | 17 | 125 | 3.2 | 6.4 | 0.00 | 0.00 | 0.00 | 70 | 1010.2 |
| 20260505063228 | 17 | 259 | 3.2 | 4.8 | 0.00 | 0.00 | 0.00 | 73 | 1010.2 |
| 20260505062724 | 16 | 270 | 1.6 | 3.2 | 0.00 | 0.00 | 0.00 | 74 | 1010.2 |
| 20260505062222 | 16 | 121 | 1.6 | 6.4 | 0.00 | 0.00 | 0.00 | 75 | 1010.0 |
| 20260505061720 | 16 | 62 | 0.0 | 0.0 | 0.00 | 0.00 | 0.00 | 76 | 1010.0 |
| 20260505061217 | 16 | 104 | 0.0 | 3.2 | 0.00 | 0.00 | 0.00 | 77 | 1009.8 |
| 20260505060714 | 16 | 88 | 1.6 | 4.8 | 0.00 | 0.00 | 0.00 | 78 | 1009.7 |
| 20260505060211 | 15 | 84 | 1.6 | 1.6 | 0.00 | 0.00 | 0.00 | 79 | 1009.6 |
| 20260505055707 | 15 | 101 | 0.0 | 1.6 | 0.00 | 0.00 | 0.00 | 79 | 1009.8 |
| 20260505055204 | 15 | 96 | 1.6 | 9.7 | 0.00 | 0.00 | 0.00 | 81 | 1009.7 |
| 20260505054701 | 14 | 79 | 0.0 | 0.0 | 0.00 | 0.00 | 0.00 | 82 | 1009.9 |
| 20260505054159 | 14 | 79 | 0.0 | 1.6 | 0.00 | 0.00 | 0.00 | 82 | 1009.8 |
| 20260505053656 | 14 | 82 | 1.6 | 1.6 | 0.00 | 0.00 | 0.00 | 83 | 1009.8 |
| 20260505053152 | 13 | 89 | 0.0 | 1.6 | 0.00 | 0.00 | 0.00 | 84 | 1009.9 |
| 20260505052649 | 13 | 121 | 0.0 | 0.0 | 0.00 | 0.00 | 0.00 | 84 | 1009.9 |
| 20260505052146 | 13 | 144 | 0.0 | 0.0 | 0.00 | 0.00 | 0.00 | 84 | 1009.9 |
| 20260505051643 | 13 | 144 | 0.0 | 0.0 | 0.00 | 0.00 | 0.00 | 83 | 1009.9 |
| 20260505051141 | 13 | 144 | 0.0 | 0.0 | 0.00 | 0.00 | 0.00 | 83 | 1009.7 |
| 20260505050639 | 14 | 134 | 0.0 | 0.0 | 0.00 | 0.00 | 0.00 | 83 | 1009.9 |
| 20260505050138 | 14 | 134 | 1.6 | 1.6 | 0.00 | 0.00 | 0.00 | 83 | 1010.0 |
| 20260505041612 | 14 | 107 | 0.0 | 0.0 | 0.00 | 0.00 | 0.00 | 82 | 1010.1 |
| 20260505041110 | 14 | 107 | 0.0 | 0.0 | 0.00 | 0.00 | 0.00 | 82 | 1009.8 |
| 20260505040607 | 13 | 107 | 0.0 | 0.0 | 0.00 | 0.00 | 0.00 | 82 | 1009.7 |
| 20260505040104 | 13 | 107 | 0.0 | 0.0 | 0.00 | 0.00 | 0.00 | 82 | 1009.9 |
| 20260505035600 | 13 | 109 | 0.0 | 0.0 | 0.00 | 0.00 | 0.00 | 82 | 1009.7 |
| 20260505035057 | 13 | 109 | 0.0 | 0.0 | 0.00 | 0.00 | 0.00 | 81 | 1010.0 |
| 20260505034553 | 13 | 109 | 0.0 | 0.0 | 0.00 | 0.00 | 0.00 | 81 | 1010.1 |
| 20260505034050 | 13 | 109 | 0.0 | 0.0 | 0.00 | 0.00 | 0.00 | 81 | 1009.8 |
| 20260505033547 | 13 | 109 | 0.0 | 0.0 | 0.00 | 0.00 | 0.00 | 80 | 1009.8 |
| 20260505033045 | 13 | 109 | 0.0 | 0.0 | 0.00 | 0.00 | 0.00 | 80 | 1009.9 |
| 20260505032543 | 13 | 109 | 0.0 | 0.0 | 0.00 | 0.00 | 0.00 | 79 | 1009.9 |
| 20260505032039 | 13 | 109 | 0.0 | 0.0 | 0.00 | 0.00 | 0.00 | 78 | 1010.1 |
| 20260505031537 | 13 | 109 | 0.0 | 0.0 | 0.00 | 0.00 | 0.00 | 77 | 1010.0 |
| 20260505031033 | 14 | 109 | 0.0 | 0.0 | 0.00 | 0.00 | 0.00 | 77 | 1009.9 |
| 20260505030530 | 14 | 109 | 0.0 | 0.0 | 0.00 | 0.00 | 0.00 | 77 | 1010.1 |
| 20260505030026 | 14 | 109 | 0.0 | 0.0 | 0.00 | 0.00 | 0.00 | 76 | 1010.0 |
| 20260505025522 | 15 | 106 | 0.0 | 0.0 | 0.00 | 0.00 | 0.00 | 75 | 1010.0 |
| 20260505025021 | 15 | 106 | 0.0 | 0.0 | 0.00 | 0.00 | 0.00 | 74 | 1010.0 |
| 20260505024517 | 15 | 106 | 0.0 | 0.0 | 0.00 | 0.00 | 0.00 | 73 | 1010.0 |
| 20260505024015 | 15 | 106 | 0.0 | 0.0 | 0.00 | 0.00 | 0.00 | 72 | 1010.1 |
| 20260505023511 | 16 | 106 | 0.0 | 0.0 | 0.00 | 0.00 | 0.00 | 71 | 1010.0 |
| 20260505023009 | 16 | 106 | 0.0 | 0.0 | 0.00 | 0.00 | 0.00 | 70 | 1009.9 |
| 20260505022507 | 16 | 107 | 0.0 | 0.0 | 0.00 | 0.00 | 0.00 | 69 | 1009.9 |
| 20260505022004 | 16 | 108 | 0.0 | 0.0 | 0.00 | 0.00 | 0.00 | 68 | 1009.9 |
| 20260505021500 | 16 | 108 | 0.0 | 0.0 | 0.00 | 0.00 | 0.00 | 67 | 1010.0 |
| 20260505020955 | 17 | 108 | 0.0 | 0.0 | 0.00 | 0.00 | 0.00 | 65 | 1009.9 |
| 20260505020451 | 17 | 108 | 0.0 | 0.0 | 0.00 | 0.00 | 0.00 | 64 | 1009.8 |
| 20260505015948 | 18 | 107 | 0.0 | 0.0 | 0.00 | 0.00 | 0.00 | 63 | 1009.9 |
| 20260505015445 | 18 | 139 | 0.0 | 1.6 | 0.00 | 0.00 | 0.00 | 62 | 1010.0 |
| 20260505014942 | 18 | 145 | 0.0 | 0.0 | 0.00 | 0.00 | 0.00 | 62 | 1009.9 |
| 20260505014439 | 18 | 147 | 0.0 | 0.0 | 0.00 | 0.00 | 0.00 | 62 | 1009.9 |
| 20260505013937 | 18 | 182 | 1.6 | 1.6 | 0.00 | 0.00 | 0.00 | 61 | 1009.9 |
| 20260505013433 | 18 | 140 | 1.6 | 6.4 | 0.00 | 0.00 | 0.00 | 60 | 1009.8 |
| 20260505012931 | 18 | 98 | 3.2 | 4.8 | 0.00 | 0.00 | 0.00 | 60 | 1009.8 |
| 20260505012429 | 19 | 100 | 3.2 | 4.8 | 0.00 | 0.00 | 0.00 | 59 | 1009.9 |
| 20260505011925 | 19 | 230 | 3.2 | 6.4 | 0.00 | 0.00 | 0.00 | 59 | 1009.8 |
| 20260505011421 | 19 | 140 | 3.2 | 4.8 | 0.00 | 0.00 | 0.00 | 58 | 1009.8 |
| 20260505010918 | 19 | 126 | 6.4 | 9.7 | 0.00 | 0.00 | 0.00 | 58 | 1009.6 |
| 20260505010414 | 19 | 242 | 4.8 | 9.7 | 0.00 | 0.00 | 0.00 | 58 | 1009.6 |
| 20260505005910 | 20 | 117 | 4.8 | 6.4 | 0.00 | 0.00 | 0.00 | 58 | 1009.5 |
| 20260505005407 | 20 | 132 | 3.2 | 6.4 | 0.00 | 0.00 | 0.00 | 58 | 1009.7 |
| 20260505004905 | 19 | 140 | 4.8 | 9.7 | 0.00 | 0.00 | 0.00 | 58 | 1009.7 |
| 20260505004401 | 19 | 66 | 1.6 | 4.8 | 0.00 | 0.00 | 0.00 | 59 | 1009.7 |
| 20260505003858 | 19 | 171 | 3.2 | 4.8 | 0.00 | 0.00 | 0.00 | 60 | 1009.6 |
| 20260505003355 | 19 | 121 | 1.6 | 3.2 | 0.00 | 0.00 | 0.00 | 60 | 1009.8 |
| 20260505002851 | 19 | 214 | 1.6 | 3.2 | 0.00 | 0.00 | 0.00 | 59 | 1009.6 |
| 20260505002348 | 19 | 118 | 3.2 | 4.8 | 0.00 | 0.00 | 0.00 | 59 | 1009.6 |
| 20260505001847 | 20 | 128 | 3.2 | 4.8 | 0.00 | 0.00 | 0.00 | 58 | 1009.6 |
| 20260505001343 | 20 | 226 | 3.2 | 3.2 | 0.00 | 0.00 | 0.00 | 57 | 1009.7 |
| 20260505000841 | 20 | 127 | 1.6 | 4.8 | 0.00 | 0.00 | 0.00 | 56 | 1009.7 |
| 20260505000338 | 20 | 233 | 4.8 | 6.4 | 0.00 | 0.00 | 0.00 | 55 | 1009.6 |
| 20260504235835 | 20 | 216 | 1.6 | 4.8 | 0.00 | 0.00 | 0.00 | 57 | 1009.5 |
| 20260504235332 | 21 | 149 | 1.6 | 6.4 | 0.00 | 0.00 | 0.00 | 55 | 1009.5 |
| 20260504234828 | 21 | 244 | 1.6 | 3.2 | 0.00 | 0.00 | 0.00 | 55 | 1009.4 |
| 20260504234326 | 21 | 237 | 3.2 | 4.8 | 0.00 | 0.00 | 0.00 | 56 | 1009.4 |
| 20260504233822 | 20 | 150 | 1.6 | 4.8 | 0.00 | 0.00 | 0.00 | 55 | 1009.4 |
| 20260504233318 | 21 | 177 | 1.6 | 4.8 | 0.00 | 0.00 | 0.00 | 55 | 1009.4 |
| 20260504232815 | 20 | 132 | 3.2 | 9.7 | 0.00 | 0.00 | 0.00 | 56 | 1009.6 |
| 20260504232312 | 20 | 194 | 3.2 | 6.4 | 0.00 | 0.00 | 0.00 | 55 | 1009.5 |
| 20260504231809 | 21 | 129 | 3.2 | 6.4 | 0.00 | 0.00 | 0.00 | 54 | 1009.5 |
| 20260504231306 | 21 | 85 | 3.2 | 4.8 | 0.00 | 0.00 | 0.00 | 54 | 1009.5 |
| 20260504230801 | 21 | 177 | 3.2 | 4.8 | 0.00 | 0.00 | 0.00 | 53 | 1009.5 |
| 20260504230300 | 21 | 223 | 1.6 | 4.8 | 0.00 | 0.00 | 0.00 | 54 | 1009.6 |
| 20260504225758 | 21 | 120 | 0.0 | 6.4 | 0.00 | 0.00 | 0.00 | 55 | 1009.7 |
| 20260504225254 | 21 | 211 | 3.2 | 4.8 | 0.00 | 0.00 | 0.00 | 54 | 1009.7 |
| 20260504224751 | 21 | 254 | 4.8 | 9.7 | 0.00 | 0.00 | 0.00 | 52 | 1009.4 |
| 20260504224248 | 22 | 176 | 3.2 | 11.3 | 0.00 | 0.00 | 0.00 | 51 | 1009.4 |
| 20260504223745 | 21 | 150 | 6.4 | 12.9 | 0.00 | 0.00 | 0.00 | 51 | 1010.0 |
| 20260504223240 | 21 | 225 | 6.4 | 12.9 | 0.00 | 0.00 | 0.00 | 52 | 1010.2 |
| 20260504222738 | 21 | 232 | 4.8 | 17.7 | 0.00 | 0.00 | 0.00 | 52 | 1010.2 |
| 20260504222234 | 21 | 281 | 8.0 | 12.9 | 0.00 | 0.00 | 0.00 | 53 | 1009.8 |
| 20260504221732 | 21 | 171 | 6.4 | 9.7 | 0.00 | 0.00 | 0.00 | 52 | 1009.7 |
| 20260504221229 | 21 | 171 | 1.6 | 6.4 | 0.00 | 0.00 | 0.00 | 52 | 1009.9 |
| 20260504220725 | 22 | 177 | 8.0 | 14.5 | 0.00 | 0.00 | 0.00 | 50 | 1009.8 |
| 20260504220223 | 23 | 90 | 3.2 | 4.8 | 0.00 | 0.00 | 0.00 | 49 | 1010.2 |
| 20260504215720 | 22 | 229 | 6.4 | 14.5 | 0.00 | 0.00 | 0.00 | 51 | 1010.0 |
| 20260504215217 | 22 | 262 | 3.2 | 11.3 | 0.00 | 0.00 | 0.00 | 51 | 1009.8 |
| 20260504214712 | 22 | 189 | 6.4 | 20.9 | 0.00 | 0.00 | 0.00 | 50 | 1009.9 |
| 20260504214209 | 23 | 190 | 6.4 | 11.3 | 0.00 | 0.00 | 0.00 | 48 | 1009.9 |
| 20260504213706 | 23 | 181 | 3.2 | 14.5 | 0.00 | 0.00 | 0.00 | 48 | 1009.8 |
| 20260504213202 | 23 | 223 | 3.2 | 6.4 | 0.00 | 0.00 | 0.00 | 49 | 1009.6 |
| 20260504212659 | 22 | 180 | 6.4 | 16.1 | 0.00 | 0.00 | 0.00 | 48 | 1009.5 |
| 20260504212155 | 22 | 233 | 4.8 | 14.5 | 0.00 | 0.00 | 0.00 | 49 | 1009.6 |
| 20260504211653 | 22 | 148 | 9.7 | 16.1 | 0.00 | 0.00 | 0.00 | 49 | 1009.4 |
| 20260504211149 | 23 | 188 | 6.4 | 12.9 | 0.00 | 0.00 | 0.00 | 48 | 1009.5 |
| 20260504210647 | 23 | 228 | 6.4 | 12.9 | 0.00 | 0.00 | 0.00 | 47 | 1009.2 |
| 20260504210143 | 23 | 179 | 6.4 | 11.3 | 0.00 | 0.00 | 0.00 | 48 | 1009.3 |
| 20260504205641 | 23 | 97 | 8.0 | 14.5 | 0.00 | 0.00 | 0.00 | 46 | 1009.3 |
| 20260504205138 | 23 | 312 | 9.7 | 16.1 | 0.00 | 0.00 | 0.00 | 46 | 1009.3 |
| 20260504204637 | 23 | 86 | 4.8 | 12.9 | 0.00 | 0.00 | 0.00 | 46 | 1009.4 |
| 20260504204135 | 23 | 278 | 6.4 | 12.9 | 0.00 | 0.00 | 0.00 | 46 | 1009.4 |
| 20260504203633 | 23 | 323 | 4.8 | 12.9 | 0.00 | 0.00 | 0.00 | 48 | 1009.2 |
| 20260504203131 | 23 | 192 | 4.8 | 9.7 | 0.00 | 0.00 | 0.00 | 48 | 1009.4 |
| 20260504202631 | 23 | 200 | 3.2 | 17.7 | 0.00 | 0.00 | 0.00 | 47 | 1009.4 |
| 20260504202128 | 22 | 181 | 3.2 | 14.5 | 0.00 | 0.00 | 0.00 | 48 | 1009.7 |
| 20260504201625 | 23 | 127 | 0.0 | 6.4 | 0.00 | 0.00 | 0.00 | 49 | 1009.6 |
| 20260504201123 | 22 | 289 | 6.4 | 9.7 | 0.00 | 0.00 | 0.00 | 50 | 1009.5 |
| 20260504200620 | 22 | 192 | 4.8 | 11.3 | 0.00 | 0.00 | 0.00 | 49 | 1009.7 |
| 20260504200116 | 22 | 195 | 3.2 | 4.8 | 0.00 | 0.00 | 0.00 | 49 | 1009.7 |
| 20260504195612 | 22 | 209 | 8.0 | 11.3 | 0.00 | 0.00 | 0.00 | 48 | 1010.0 |
| 20260504195108 | 23 | 238 | 6.4 | 6.4 | 0.00 | 0.00 | 0.00 | 47 | 1009.9 |
| 20260504194605 | 23 | 104 | 6.4 | 14.5 | 0.00 | 0.00 | 0.00 | 48 | 1009.9 |
| 20260504194101 | 23 | 224 | 4.8 | 22.5 | 0.00 | 0.00 | 0.00 | 48 | 1009.9 |
| 20260504193558 | 22 | 82 | 3.2 | 11.3 | 0.00 | 0.00 | 0.00 | 50 | 1010.0 |
| 20260504193057 | 22 | 136 | 6.4 | 12.9 | 0.00 | 0.00 | 0.00 | 49 | 1009.9 |
| 20260504192555 | 23 | 187 | 8.0 | 12.9 | 0.00 | 0.00 | 0.00 | 48 | 1010.1 |
| 20260504192052 | 23 | 231 | 9.7 | 11.3 | 0.00 | 0.00 | 0.00 | 48 | 1010.1 |
| 20260504191550 | 23 | 190 | 9.7 | 16.1 | 0.00 | 0.00 | 0.00 | 49 | 1010.1 |
| 20260504191045 | 22 | 57 | 3.2 | 12.9 | 0.00 | 0.00 | 0.00 | 49 | 1010.0 |
| 20260504190542 | 22 | 246 | 11.3 | 16.1 | 0.00 | 0.00 | 0.00 | 48 | 1010.2 |
| 20260504190038 | 22 | 209 | 3.2 | 6.4 | 0.00 | 0.00 | 0.00 | 50 | 1010.2 |
| 20260504185535 | 22 | 222 | 8.0 | 14.5 | 0.00 | 0.00 | 0.00 | 49 | 1010.3 |
| 20260504185032 | 22 | 144 | 8.0 | 14.5 | 0.00 | 0.00 | 0.00 | 50 | 1010.3 |
| 20260504184527 | 22 | 190 | 4.8 | 11.3 | 0.00 | 0.00 | 0.00 | 51 | 1010.5 |
| 20260504184023 | 21 | 153 | 4.8 | 11.3 | 0.00 | 0.00 | 0.00 | 51 | 1010.5 |
| 20260504183520 | 21 | 167 | 8.0 | 11.3 | 0.00 | 0.00 | 0.00 | 51 | 1010.5 |
| 20260504183018 | 22 | 197 | 6.4 | 11.3 | 0.00 | 0.00 | 0.00 | 51 | 1010.4 |
| 20260504182515 | 21 | 113 | 6.4 | 14.5 | 0.00 | 0.00 | 0.00 | 50 | 1010.5 |
| 20260504182012 | 21 | 154 | 6.4 | 11.3 | 0.00 | 0.00 | 0.00 | 51 | 1010.6 |
| 20260504181509 | 21 | 153 | 4.8 | 17.7 | 0.00 | 0.00 | 0.00 | 51 | 1010.7 |
| 20260504181008 | 21 | 116 | 6.4 | 9.7 | 0.00 | 0.00 | 0.00 | 52 | 1010.8 |
| 20260504180506 | 21 | 171 | 14.5 | 17.7 | 0.00 | 0.00 | 0.00 | 51 | 1010.9 |
| 20260504180004 | 21 | 195 | 3.2 | 11.3 | 0.00 | 0.00 | 0.00 | 52 | 1010.9 |
| 20260504175501 | 21 | 173 | 8.0 | 16.1 | 0.00 | 0.00 | 0.00 | 51 | 1011.0 |
| 20260504174958 | 21 | 124 | 4.8 | 11.3 | 0.00 | 0.00 | 0.00 | 54 | 1010.9 |
| 20260504174456 | 21 | 74 | 3.2 | 16.1 | 0.00 | 0.00 | 0.00 | 52 | 1011.0 |
| 20260504173953 | 21 | 54 | 6.4 | 14.5 | 0.00 | 0.00 | 0.00 | 52 | 1011.0 |
| 20260504173449 | 21 | 188 | 6.4 | 11.3 | 0.00 | 0.00 | 0.00 | 54 | 1011.1 |
| 20260504172947 | 20 | 114 | 9.7 | 14.5 | 0.00 | 0.00 | 0.00 | 52 | 1011.1 |
| 20260504172442 | 20 | 259 | 4.8 | 11.3 | 0.00 | 0.00 | 0.00 | 54 | 1011.3 |
| 20260504171939 | 21 | 271 | 1.6 | 11.3 | 0.00 | 0.00 | 0.00 | 54 | 1011.3 |
| 20260504171437 | 20 | 280 | 4.8 | 9.7 | 0.00 | 0.00 | 0.00 | 53 | 1011.4 |
| 20260504170934 | 20 | 143 | 8.0 | 11.3 | 0.00 | 0.00 | 0.00 | 52 | 1011.4 |
| 20260504170430 | 20 | 198 | 6.4 | 12.9 | 0.00 | 0.00 | 0.00 | 51 | 1011.4 |
| 20260504160349 | 20 | 68 | 3.2 | 12.9 | 0.00 | 0.00 | 0.00 | 51 | 1012.1 |
| 20260504150813 | 18 | 127 | 8.0 | 12.9 | 0.00 | 0.00 | 0.00 | 50 | 1013.1 |
| 20260504150310 | 18 | 99 | 6.4 | 9.7 | 0.00 | 0.00 | 0.00 | 50 | 1013.1 |
| 20260504141240 | 16 | 107 | 6.4 | 11.3 | 0.00 | 0.00 | 0.00 | 53 | 1013.6 |
| 20260504140736 | 16 | 163 | 6.4 | 12.9 | 0.00 | 0.00 | 0.00 | 54 | 1013.4 |
| 20260504140232 | 16 | 175 | 6.4 | 12.9 | 0.00 | 0.00 | 0.00 | 54 | 1013.6 |